Lawrenceville, GA

11:19 PM EST on December 11, 2019 (GMT -0500)
Gwinnett County-Briscoe

Weather History for KLZU - September, 2019

Change the Weather History Date:

Friday, September 20, 2019

  Actual Average (KWDR) Record (KWDR)
Temperature  
Mean Temperature 70 °F -  
Max Temperature 81 °F 83 °F 93 °F (2010)
Min Temperature 60 °F 61 °F 42 °F (1981)
Cooling Degree Days 5    
Growing Degree Days 20 (Base 50)    
Moisture  
Dew Point 57 °F    
Average Humidity 70    
Maximum Humidity 93    
Minimum Humidity 42    
Precipitation  
Precipitation 0.00 in - - ()
Sea Level Pressure  
Sea Level Pressure 30.30 in    
Wind  
Wind Speed 5 mph (East)    
Max Wind Speed 9 mph    
Max Gust Speed 17 mph    
Visibility 10 miles    
Events      
Averages and records for this station are not official NWS values.
T = Trace of Precipitation, MM = Missing Value Source: NWS Daily Summary

Daily Weather History Graph

Daily Weather History Graph

Search for Another Location

Airport or City:

Astronomy

Sep. 20, 2019 Rise Set
Actual Time 7:22 AM EDT 7:35 PM EDT
Civil Twilight 6:57 AM EDT 8:00 PM EDT
Nautical Twilight 6:28 AM EDT 8:29 PM EDT
Astronomical Twilight 5:58 AM EDT 8:59 PM EDT
Moon 11:40 PM EDT (9/20) 1:10 PM EDT (9/20)
Length of Visible Light 13h 03m
Length of Day
12h 13m
Waning Gibbous, 65% of the Moon is Illuminated
Sep 20
Waning Gibbous
Sep 21
Last Quarter
Sep 28
New
Oct 5
First Quarter
Oct 13
Full

Hourly Weather History & Observations

Time (EDT) Temp. Heat Index Dew Point Humidity Pressure Visibility Wind Dir Wind Speed Gust Speed Precip Events Conditions
12:56 AM 64.0 °F - 57.9 °F 80% 30.27 in 10.0 mi ENE 3.5 mph - N/A   Partly Cloudy
1:56 AM 63.0 °F - 57.9 °F 84% 30.29 in 10.0 mi ENE 4.6 mph - N/A   Scattered Clouds
2:56 AM 61.0 °F - 57.9 °F 90% 30.29 in 10.0 mi ENE 4.6 mph - N/A   Clear
3:56 AM 61.0 °F - 57.9 °F 90% 30.28 in 10.0 mi NE 3.5 mph - N/A   Clear
4:56 AM 61.0 °F - 57.9 °F 90% 30.28 in 10.0 mi NE 4.6 mph - N/A   Overcast
5:56 AM 60.1 °F - 57.0 °F 90% 30.29 in 10.0 mi NE 3.5 mph - N/A   Clear
6:56 AM 60.1 °F - 57.0 °F 90% 30.31 in 10.0 mi East 6.9 mph - N/A   Clear
7:56 AM 60.1 °F - 57.0 °F 90% 30.33 in 10.0 mi Variable 3.5 mph - N/A   Clear
8:56 AM 64.0 °F - 57.0 °F 78% 30.34 in 9.0 mi Variable 5.8 mph - N/A   Clear
9:56 AM 66.9 °F - 55.9 °F 68% 30.35 in 10.0 mi East 8.1 mph - N/A   Clear
10:56 AM 70.0 °F - 55.0 °F 59% 30.36 in 10.0 mi Variable 4.6 mph - N/A   Clear
11:56 AM 73.0 °F - 54.0 °F 51% 30.35 in 7.0 mi East 9.2 mph 17.3 mph N/A   Clear
12:56 PM 75.0 °F - 54.0 °F 48% 30.34 in 10.0 mi Variable 6.9 mph - N/A   Clear
1:56 PM 77.0 °F - 55.0 °F 47% 30.31 in 10.0 mi SE 8.1 mph - N/A   Clear
2:56 PM 78.1 °F - 54.0 °F 43% 30.29 in 10.0 mi SE 5.8 mph - N/A   Clear
3:56 PM 79.0 °F - 55.0 °F 44% 30.26 in 10.0 mi SE 8.1 mph - N/A   Clear
4:56 PM 80.1 °F 80.1 °F 55.0 °F 42% 30.26 in 10.0 mi ENE 5.8 mph - N/A   Clear
5:56 PM 79.0 °F - 55.0 °F 44% 30.26 in 10.0 mi East 6.9 mph - N/A   Clear
6:56 PM 77.0 °F - 55.0 °F 47% 30.26 in 10.0 mi East 4.6 mph - N/A   Clear
7:56 PM 71.1 °F - 57.9 °F 63% 30.27 in 10.0 mi Calm Calm - N/A   Clear
8:56 PM 64.9 °F - 59.0 °F 81% 30.29 in 10.0 mi Calm Calm - N/A   Clear
9:56 PM 63.0 °F - 59.0 °F 87% 30.30 in 10.0 mi Calm Calm - N/A   Clear
10:56 PM 62.1 °F - 59.0 °F 90% 30.30 in 10.0 mi Calm Calm - N/A   Clear
11:56 PM 60.1 °F - 57.9 °F 93% 30.31 in 10.0 mi Calm Calm - N/A   Clear